Zurück zum Katalog

STARLINK-4204

AktivKommunikationVLEO
NORAD 52854·PAYLOAD·🇺🇸 United States

Gestartet Jun 17, 2022 von Cape Canaveral Space Force Station

Loading…

Nächste Überflüge (nächste 24 Stunden)

TLE

AktuellSource: CelesTrak SupGP

Epoche: Sep 15, 2026, 01:44 UTC

1 52854C 22062AA  26258.07270833 -.00035387  00000+0 -10123-2 0  2583
2 52854  53.1582 242.7600 0001302  89.5913 250.7136 15.35421776    18

Verfolge STARLINK-4204 in Echtzeit mit AllMySat

Download on the App Store